Starlink 32519

operational
NORAD ID: 62317 Int'l Des: 2024-239 Owner: SPXS Country: US Constellation: starlink
LEOCIRCULAR

Über Starlink 32519

Beschreibung wird geladen...

Live-Position

3D-Globus wird geladen...

Nächste Überflüge

Höhenverlauf

Altitude vs Time

uPlot chart will show altitude changes over time

Zweizeiliger Elementsatz

1 62317U 24239S 25261.00816781 .00038647 00000-0 96997-3 0 9997
2 62317 53.1609 264.7832 0002353 326.9201 33.1657 15.39659143 43102
Epoch: 18. Sept. 2025 • Age: 11 hours

Aktueller Status

Höhe 453.3 km
Geschwindigkeit 7.65 km/s
Subsatellitenpunkt 50.25°N, 157.28°E
Startdatum 13. Dez. 2024
Alter 0.7 years
Typ internet

Technische Details

Klassifizierung Payload
Masse 730.00 kg
Trockenmasse 700.00 kg
Gesamtmasse 730.00 kg
Länge 0.30 m
Durchmesser 4.10 m
Spannweite 29.00 m
Form Box + pan
Hersteller SPXS
Bus-Typ Starlink V2M
Phasenstatus In Orbit
Besitzer/Staat SPXS/US

Große Konstellationen

Loading constellations...